Regional Weather Roundup
Issued by NWS Charleston, SC

Current Version | Previous Version | Graphics & Text | Print | Product List | Glossary On
Versions: 1 2 3 4 5 6 7 8 9 10 11 12 13 14 15 16 17 18 19 20 21 22 23 24 25 26 27 28 29 30 31 32 33 34 35 36 37 38 39 40 41 42 43 44 45 46 47 48 49 50
000
ASUS42 KCHS 302112
RWRCHS

REGIONAL WEATHER ROUNDUP
NATIONAL WEATHER SERVICE CHARLESTON SC
500 PM EDT THU JUL 30 2015

NOTE: "FAIR" INDICATES FEW OR NO CLOUDS BELOW 12,000 FEET WITH NO
SIGNIFICANT WEATHER AND/OR OBSTRUCTIONS TO VISIBILITY.

NOT ALL STATIONS ARE QUALITY CONTROLLED BY THE NATIONAL
WEATHER SERVICE. USE DATA WITH CAUTION...ESPECIALLY
DEWPOINT OBSERVATIONS.

SCZ027-030-031-034>040-042>050-302200-
...SOUTHEAST SOUTH CAROLINA...

CITY           SKY/WX    TMP DP  RH WIND       PRES   REMARKS
N CHARLESTON   MOSUNNY   91  77  63 S16       29.86F HX 104
WATERFRONT PRK   N/A     87  78  74 S10       29.84F HX 100
MOUNT PLEASANT   N/A     90  75  62 S9        29.87S HX 100
JOHNS ISLAND   FAIR      90  77  66 S10G16    29.87F HX 102
PINOPOLIS      NOT AVBL
MONCKS CORNER  FAIR      97  66  36 CALM      29.86S HX 100
SUMMERVILLE    NOT AVBL
BEAUFORT MCAS  MOSUNNY   92  78  63 S7        29.87F HX 107
BEAUFORT ARPT  FAIR      90  70  51 S10G16    29.87F HX  95
HILTON HEAD IS SUNNY     88  70  55 S8        29.89F HX  92
WALTERBORO     PTCLDY    99  64  32 SW5       29.86F HX 101
ALLENDALE      FAIR      97  70  41 S3        29.85F HX 103

...SOUTHERN MIDLANDS AND PEE DEE...

CITY           SKY/WX    TMP DP  RH WIND       PRES   REMARKS
GEORGETOWN     NOT AVBL
KINGSTREE      NOT AVBL
ORANGEBURG     PTSUNNY   86  72  62 NW14G21   29.88R HX  92
BARNWELL       FAIR      97  73  46 W6        29.87S HX 107
AIKEN          FAIR      90  68  48 SW9       29.92S HX  93
MANNING        MOCLDY    95  63  34 S6        29.85S HX  96
COLUMBIA       PTSUNNY   86  74  67 SE9       29.88S HX  94
SUMTER         PTSUNNY   79  73  82 NW9       29.85F
FLORENCE       MOSUNNY   98  68  37 VRB3      29.84F HX 103
MYRTLE BEACH   MOSUNNY   90  73  58 S9        29.87F HX  98
N MYRTLE BEACH SUNNY     87  74  64 SE7       29.86F HX  95

$$

GAZ063-065-086>088-099>101-113>116-118-119-134>141-150-302200-
...SOUTHEAST GEORGIA...

CITY           SKY/WX    TMP DP  RH WIND       PRES   REMARKS
SAVANNAH ARPT  PTSUNNY   91  75  59 S3        29.88F HX 101
HUNTER AAF     NOT AVBL
FORT STEWART   PTSUNNY   92  74  54 SE5       29.85F HX 102
STATESBORO     MOSUNNY   97  73  47 SW6       29.86F HX 107
SYLVANIA       PTCLDY    97  71  43 W6        29.87F HX 105
CLAXTON        FAIR      95  73  49 CALM      29.87F HX 105

...CSRA...CENTRAL AND FAR SOUTHEAST GEORGIA...

CITY           SKY/WX    TMP DP  RH WIND       PRES   REMARKS
THOMSON        MOSUNNY   97  76  50 E6        29.92S HX 110
AUGUSTA-BUSH   MOSUNNY   87  73  62 NW12      29.86S THUNDER HX  94
AUGUSTA-DANIEL MOSUNNY   79  74  84 VRB5      29.90S
SWAINSBORO     FAIR      91  79  66 W7        29.89F HX 107
VIDALIA        SUNNY     91  72  52 S5        29.88F HX  98
EASTMAN        FAIR      95  73  48 SW7       29.90F HX 104
HAZLEHURST     FAIR      92  77  60 S5        29.87F HX 105
ALMA           SUNNY     92  74  55 CALM      29.89F HX 101
WAYCROSS       MOSUNNY   95  79  59 SW7       29.88F HX 112
JESUP          FAIR      95  77  55 CALM      29.88F HX 109
BAXLEY         FAIR      93  73  52 W5        29.88F HX 102
BRUNSWICK      MOSUNNY   93  73  52 S7        29.89F HX 102
SAINT SIMONS   SUNNY     87  75  67 S9        29.89F HX  96

$$

SCZ027-028-034-036>038-045-046-048>050-GAZ119-141-302200-
...LAKE AND SUPPLEMENTAL COASTAL OBSERVATIONS...

STATION/POSITION TIME  TEMP    WIND        PRES    WAVE   SWELL
                       AIR SEA DIR/SP/G            HT/PER HT/PER/DIR
                 (UTC) (F)     (DEG/KT/KT) (MB)    (FT/S) (FT/S/D)
UPR LAKE MARION  NOT AVBL
WINYAH BAY       1945   86     130/  8     1011.0
LAKE MURRAY      2000   83      CALM  /  4 1011.5F
ACE BASIN NERRS  NOT AVBL
FORT PULASKI     2000   88 87  140/  6/  9 1013.0F
SAPELO ISLAND    2000   91     150/  8     1013.0F

$$

ANZ835-935-AMZ111-154-330-350-352-354-370-450-454-472-302200-
...C-MAN AND BUOY OBSERVATIONS...

STATION/POSITION TIME  TEMP    WIND        PRES    WAVE   SWELL
                       AIR SEA DIR/SP/G            HT/PER HT/PER/DIR
                 (UTC) (F)     (DEG/KT/KT) (MB)    (FT/S) (FT/S/D)
BUOY 41004       2050   83 85   30/  6/  6 1011.3F   3/ 8   2/ 8
BUOY 41008       2050   83 86  180/  8/ 10 1012.6F   2/ 5   2/ 70/ 5
FOLLY BEACH CMAN 2000   85     180/  8/ 10 1012.2F
CAPERS NEARSHORE 2008   83     150/  8/ 12 1011.6F
FRIPP NEARSHORE  2000   85     190/ 12/ 14 1012.1F


STATION/POSITION TIME  TEMP    WIND        PRES    WAVE   SWELL
                       AIR SEA DIR/SP/G            HT/PER HT/PER/DIR
                 (UTC) (F)     (DEG/KT/KT) (MB)    (FT/S) (FT/S/D)
5E ST. MARYS GA  2021      86                N/A     2/ 8
FRYING PAN BUOY  2050   83 85   70/  8/ 10 1011.5F   3/ 8   3/170/ 8
BUOY 41025       2050   84 86  160/ 16/ 19 1012.7F   5/ 8   2/170/ 8
CAPE LOOKOUT NC  2000   83     160/ 12/ 14 1012.2F
BUOY 41002       2050   82 81  190/ 21/ 25 1012.9F   9/ 9
BUOY 41010       2020   83 84  240/ 14/ 16 1014.1F
ST AUGUSTINE FL  2100   83 85   70/  7/  7 1013.1F


$$


USA.gov is the U.S. government's official web portal to all federal, state and local government web resources and services.